• Em Portugal
  • Lista de países
  • Para 7 dias
  • Temperatura da água
  • Mapas de satélite
  • Mapa do tempo
  • Widgets de tempo
  • user-avatar
    Iniciar Sessão

    Previsão horária em Krzywe

    Hoje, 22 Junho, Sexta-feira

    Tempo Temperatura Precipitação Vento Pressão Humidade
    00:00 +13°C° 0 mm 5 m/s 741 mmHg 94%
    01:00 +12°C° 0 mm 5 m/s 742 mmHg 94%
    02:00 +10°C° 0 mm 3 m/s 742 mmHg 94%
    03:00 +10°C° 0 mm 4 m/s 742 mmHg 94%
    04:00 +10°C° 0 mm 4 m/s 743 mmHg 94%
    05:00 +8°C° 0 mm 5 m/s 743 mmHg 93%
    06:00 +9°C° 0 mm 5 m/s 744 mmHg 88%
    07:00 +10°C° 0 mm 5 m/s 744 mmHg 83%
    08:00 +11°C° 0 mm 6 m/s 744 mmHg 78%
    09:00 +13°C° 0 mm 6 m/s 744 mmHg 71%
    10:00 +14°C° 0 mm 6 m/s 745 mmHg 65%
    11:00 +16°C° 0 mm 6 m/s 745 mmHg 58%
    12:00 +16°C° 0 mm 6 m/s 745 mmHg 56%
    13:00 +17°C° 0 mm 6 m/s 745 mmHg 53%
    14:00 +17°C° 0 mm 6 m/s 745 mmHg 51%
    15:00 +17°C° 0 mm 6 m/s 745 mmHg 52%
    16:00 +17°C° 0 mm 5 m/s 745 mmHg 53%
    17:00 +17°C° 0 mm 5 m/s 745 mmHg 54%
    18:00 +17°C° 0 mm 4 m/s 746 mmHg 61%
    19:00 +16°C° 0 mm 3 m/s 746 mmHg 67%
    20:00 +15°C° 0 mm 2 m/s 746 mmHg 74%
    21:00 +13°C° 0 mm 2 m/s 746 mmHg 78%
    22:00 +12°C° 0 mm 2 m/s 746 mmHg 82%
    23:00 +11°C° 0 mm 1 m/s 746 mmHg 87%

    Amanhã, 23 Junho, Sábado

    Tempo Temperatura Precipitação Vento Pressão Humidade
    00:00 +9°C° 0 mm 2 m/s 746 mmHg 88%
    01:00 +9°C° 0 mm 2 m/s 746 mmHg 89%
    02:00 +9°C° 0 mm 2 m/s 746 mmHg 89%
    03:00 +9°C° 0 mm 2 m/s 746 mmHg 90%
    04:00 +9°C° 0 mm 2 m/s 746 mmHg 90%
    05:00 +8°C° 0 mm 2 m/s 746 mmHg 90%
    06:00 +10°C° 0 mm 2 m/s 746 mmHg 84%
    07:00 +13°C° 0 mm 2 m/s 746 mmHg 78%
    08:00 +14°C° 0 mm 3 m/s 746 mmHg 72%
    09:00 +16°C° 0,1 mm 3 m/s 746 mmHg 66%
    10:00 +17°C° 0,1 mm 3 m/s 746 mmHg 60%
    11:00 +18°C° 0,1 mm 3 m/s 746 mmHg 54%
    12:00 +18°C° 0,3 mm 3 m/s 745 mmHg 56%
    13:00 +19°C° 0,3 mm 3 m/s 745 mmHg 57%
    14:00 +19°C° 0,3 mm 4 m/s 745 mmHg 59%
    15:00 +18°C° 0,3 mm 3 m/s 745 mmHg 62%
    16:00 +18°C° 0,3 mm 3 m/s 745 mmHg 65%
    17:00 +17°C° 0,3 mm 3 m/s 745 mmHg 68%
    18:00 +16°C° 0,5 mm 3 m/s 745 mmHg 75%
    19:00 +14°C° 0,5 mm 3 m/s 745 mmHg 82%
    20:00 +14°C° 0,5 mm 2 m/s 745 mmHg 89%
    21:00 +13°C° 0,1 mm 2 m/s 745 mmHg 91%
    22:00 +12°C° 0,1 mm 2 m/s 745 mmHg 93%
    23:00 +10°C° 0,1 mm 2 m/s 745 mmHg 95%

    Depois de amanhã, 24 Junho, Domingo

    Tempo Temperatura Precipitação Vento Pressão Humidade
    00:00 +9°C° 0 mm 2 m/s 745 mmHg 95%
    01:00 +8°C° 0 mm 3 m/s 745 mmHg 95%
    02:00 +8°C° 0 mm 3 m/s 745 mmHg 95%
    03:00 +8°C° 0,1 mm 3 m/s 745 mmHg 95%
    04:00 +8°C° 0,1 mm 3 m/s 745 mmHg 95%
    05:00 +8°C° 0,1 mm 3 m/s 745 mmHg 95%
    06:00 +9°C° 0,1 mm 3 m/s 745 mmHg 93%
    07:00 +10°C° 0,1 mm 3 m/s 745 mmHg 90%
    08:00 +11°C° 0,1 mm 3 m/s 745 mmHg 87%
    09:00 +12°C° 0,2 mm 3 m/s 745 mmHg 82%
    10:00 +13°C° 0,2 mm 4 m/s 745 mmHg 77%
    11:00 +14°C° 0,2 mm 4 m/s 745 mmHg 72%
    12:00 +16°C° 0,4 mm 3 m/s 746 mmHg 71%
    13:00 +16°C° 0,4 mm 3 m/s 746 mmHg 70%
    14:00 +17°C° 0,4 mm 3 m/s 746 mmHg 68%
    15:00 +17°C° 0,4 mm 3 m/s 746 mmHg 70%
    16:00 +17°C° 0,4 mm 4 m/s 746 mmHg 71%
    17:00 +17°C° 0,4 mm 4 m/s 746 mmHg 72%
    18:00 +16°C° 0,2 mm 3 m/s 746 mmHg 77%
    19:00 +14°C° 0,2 mm 3 m/s 746 mmHg 82%
    20:00 +14°C° 0,2 mm 2 m/s 746 mmHg 87%
    21:00 +13°C° 0,1 mm 2 m/s 747 mmHg 89%
    22:00 +12°C° 0,1 mm 2 m/s 747 mmHg 92%
    23:00 +10°C° 0,1 mm 2 m/s 747 mmHg 94%

    25 Junho, Segunda-feira

    Tempo Temperatura Precipitação Vento Pressão Humidade
    00:00 +9°C° 0 mm 2 m/s 747 mmHg 94%
    01:00 +9°C° 0 mm 2 m/s 748 mmHg 94%
    02:00 +9°C° 0 mm 2 m/s 748 mmHg 94%
    03:00 +9°C° 0 mm 2 m/s 748 mmHg 95%
    04:00 +9°C° 0 mm 2 m/s 748 mmHg 95%
    05:00 +9°C° 0 mm 2 m/s 749 mmHg 95%
    06:00 +10°C° 0 mm 2 m/s 749 mmHg 89%
    07:00 +13°C° 0 mm 2 m/s 749 mmHg 84%
    08:00 +15°C° 0 mm 2 m/s 749 mmHg 78%
    09:00 +16°C° 0 mm 2 m/s 750 mmHg 70%
    10:00 +17°C° 0 mm 3 m/s 750 mmHg 62%
    11:00 +18°C° 0 mm 3 m/s 750 mmHg 55%
    12:00 +19°C° 0 mm 3 m/s 750 mmHg 54%
    13:00 +19°C° 0 mm 4 m/s 750 mmHg 54%
    14:00 +20°C° 0 mm 4 m/s 750 mmHg 54%
    15:00 +19°C° 0,2 mm 4 m/s 750 mmHg 58%
    16:00 +19°C° 0,2 mm 4 m/s 750 mmHg 62%
    17:00 +19°C° 0,2 mm 4 m/s 750 mmHg 66%
    18:00 +18°C° 0,1 mm 3 m/s 751 mmHg 71%
    19:00 +17°C° 0,1 mm 2 m/s 751 mmHg 76%
    20:00 +16°C° 0,1 mm 2 m/s 751 mmHg 81%
    21:00 +15°C° 0 mm 2 m/s 751 mmHg 84%
    22:00 +14°C° 0 mm 1 m/s 752 mmHg 86%
    23:00 +12°C° 0 mm 1 m/s 752 mmHg 88%

    26 Junho, Terça-feira

    Tempo Temperatura Precipitação Vento Pressão Humidade
    00:00 +12°C° 0 mm 2 m/s 752 mmHg 89%
    01:00 +10°C° 0 mm 2 m/s 752 mmHg 90%
    02:00 +10°C° 0 mm 2 m/s 752 mmHg 91%
    03:00 +10°C° 0 mm 2 m/s 752 mmHg 90%
    04:00 +12°C° 0 mm 2 m/s 752 mmHg 89%
    05:00 +12°C° 0 mm 2 m/s 752 mmHg 88%
    06:00 +13°C° 0 mm 2 m/s 752 mmHg 84%
    07:00 +15°C° 0 mm 2 m/s 752 mmHg 80%
    08:00 +16°C° 0 mm 2 m/s 752 mmHg 76%
    09:00 +17°C° 0,2 mm 3 m/s 752 mmHg 74%
    10:00 +18°C° 0,2 mm 3 m/s 752 mmHg 72%
    11:00 +19°C° 0,2 mm 3 m/s 752 mmHg 70%
    12:00 +18°C° 0,5 mm 3 m/s 752 mmHg 72%
    13:00 +18°C° 0,5 mm 4 m/s 751 mmHg 75%
    14:00 +18°C° 0,5 mm 4 m/s 751 mmHg 77%
    15:00 +19°C° 0,1 mm 4 m/s 751 mmHg 74%
    16:00 +20°C° 0,1 mm 4 m/s 751 mmHg 70%
    17:00 +20°C° 0,1 mm 4 m/s 750 mmHg 66%
    18:00 +19°C° 0,4 mm 4 m/s 750 mmHg 73%
    19:00 +18°C° 0,4 mm 3 m/s 750 mmHg 80%
    20:00 +17°C° 0,4 mm 3 m/s 750 mmHg 86%
    21:00 +16°C° 0 mm 3 m/s 750 mmHg 89%
    22:00 +14°C° 0 mm 3 m/s 751 mmHg 91%
    23:00 +13°C° 0 mm 3 m/s 751 mmHg 93%

    27 Junho, Quarta-feira

    Tempo Temperatura Precipitação Vento Pressão Humidade
    00:00 +12°C° 0 mm 3 m/s 751 mmHg 94%
    01:00 +11°C° 0 mm 3 m/s 751 mmHg 95%
    02:00 +11°C° 0 mm 3 m/s 751 mmHg 96%
    03:00 +10°C° 0 mm 3 m/s 751 mmHg 96%
    04:00 +10°C° 0 mm 3 m/s 751 mmHg 96%
    05:00 +10°C° 0 mm 3 m/s 751 mmHg 97%
    06:00 +12°C° 0 mm 3 m/s 751 mmHg 93%
    07:00 +13°C° 0 mm 3 m/s 751 mmHg 89%
    08:00 +14°C° 0 mm 4 m/s 751 mmHg 86%
    09:00 +15°C° 0 mm 4 m/s 751 mmHg 83%
    10:00 +15°C° 0 mm 4 m/s 752 mmHg 81%
    11:00 +17°C° 0 mm 4 m/s 752 mmHg 79%
    12:00 +18°C° 0 mm 4 m/s 751 mmHg 74%
    13:00 +19°C° 0 mm 4 m/s 751 mmHg 70%
    14:00 +20°C° 0 mm 4 m/s 751 mmHg 66%
    15:00 +20°C° 0,1 mm 5 m/s 751 mmHg 66%
    16:00 +21°C° 0,1 mm 5 m/s 751 mmHg 66%
    17:00 +21°C° 0,1 mm 5 m/s 751 mmHg 67%
    18:00 +20°C° 0,2 mm 5 m/s 751 mmHg 72%
    19:00 +19°C° 0,2 mm 4 m/s 751 mmHg 78%
    20:00 +18°C° 0,2 mm 3 m/s 751 mmHg 83%
    21:00 +17°C° 0 mm 3 m/s 752 mmHg 86%
    22:00 +16°C° 0 mm 3 m/s 752 mmHg 89%
    23:00 +14°C° 0 mm 4 m/s 752 mmHg 92%
    Mostrar mais